DW6244 Cozumel MX current weather conditions

sailwx.info

Wind from 023 at 2 knots gusting 6

Air temperature 22.8° C
Dewpoint 20.5° C

Last reported at 2020-Jan-25 10:00 UTC.
Time now 2020-Jan-25 10:27 UTC

Location: N 20°30' W 086°57'.
View on Google Maps.

See reports from other nearby stations

  
Tides and Currents Weather Stations Pressure Air Temp Water Temp Dewpoint Dewpoint Depression Visibility Wind Speed Wind Dir Waves Ship Positions
date/time (UTC)wind fromknots sea level pressurealtimeterstation pressurevisibilityair tempwater tempwave heightnotes
2020-Jan-25 10:00 023 2 gusting 6 22.8
2020-Jan-25 09:50 023 1 gusting 6 22.8
2020-Jan-25 09:40 22.8
2020-Jan-25 09:30 338 2 gusting 6 22.8
2020-Jan-25 09:20 338 2 gusting 6 22.8
2020-Jan-25 09:10 338 2 gusting 6 22.8
2020-Jan-25 09:00 023 3 gusting 9 22.8
2020-Jan-25 08:50 338 4 gusting 7 22.8
2020-Jan-25 08:40 315 4 gusting 10 22.8
2020-Jan-25 08:30 338 4 gusting 10 22.8
2020-Jan-25 08:20 22.8
2020-Jan-25 08:10 22.8
2020-Jan-25 08:00 338 5 gusting 9 22.8
2020-Jan-25 07:50 023 3 gusting 9 22.8
2020-Jan-25 07:40 338 4 gusting 8 22.8
2020-Jan-25 07:30 338 4 gusting 9 22.8
2020-Jan-25 07:20 338 4 gusting 12 22.8
2020-Jan-25 07:10 023 4 gusting 9 22.8
2020-Jan-25 07:00 338 4 gusting 10 22.8
2020-Jan-25 06:50 023 4 gusting 11 22.8
2020-Jan-25 06:40 22.8
2020-Jan-25 06:30 023 3 gusting 9 22.8
2020-Jan-25 06:20 338 4 gusting 10 22.8
2020-Jan-25 06:10 023 4 gusting 10 22.8
2020-Jan-25 06:00 338 4 gusting 11 22.8
2020-Jan-25 05:50 023 4 gusting 11 22.8
2020-Jan-25 05:40 023 6 gusting 13 22.8
2020-Jan-25 05:30 22.8
2020-Jan-25 05:20 023 5 gusting 12 22.8
2020-Jan-25 05:10 023 4 gusting 11 22.8
2020-Jan-25 05:00 22.8
2020-Jan-25 04:50 023 5 gusting 12 22.8
2020-Jan-25 04:40 023 5 gusting 12 22.2
2020-Jan-25 04:30 338 5 gusting 8 22.2
2020-Jan-25 04:20 22.2
2020-Jan-25 04:10 338 5 gusting 11 22.2
2020-Jan-25 04:00 338 5 gusting 11 22.2
2020-Jan-25 03:50 338 4 gusting 11 22.2
2020-Jan-25 03:40 338 4 gusting 9 22.2
2020-Jan-25 03:30 023 4 gusting 9 22.8
2020-Jan-25 03:20 338 5 gusting 10 22.8
2020-Jan-25 03:10 338 5 gusting 12 22.8
2020-Jan-25 03:00 338 4 gusting 10 22.8
2020-Jan-25 02:50 338 3 gusting 9 22.8
2020-Jan-25 02:40 315 4 gusting 9 22.8
2020-Jan-25 02:30 338 4 gusting 10 22.8
2020-Jan-25 02:20 338 4 gusting 9 22.8
2020-Jan-25 02:10 338 4 gusting 10 22.8
2020-Jan-25 02:00 338 5 gusting 11 22.8
2020-Jan-25 01:50 338 5 gusting 10 22.8
2020-Jan-25 01:40 338 4 gusting 9 22.8
2020-Jan-25 01:30 338 5 gusting 11 23.3
2020-Jan-25 01:20 23.3
2020-Jan-25 01:10 338 5 gusting 11 23.3
2020-Jan-25 01:00 23.3
2020-Jan-25 00:50 338 5 gusting 10 23.9
2020-Jan-25 00:40 338 4 gusting 11 23.9
2020-Jan-25 00:30 23.9
2020-Jan-25 00:20 023 4 gusting 11 23.9
2020-Jan-25 00:10 045 5 gusting 12 23.9
2020-Jan-25 00:00 045 4 gusting 9 23.9
2020-Jan-24 23:50 068 5 gusting 10 23.9
2020-Jan-24 23:40 045 5 gusting 10 23.9
2020-Jan-24 23:30 045 4 gusting 9 24.4
2020-Jan-24 23:20 045 4 gusting 10 24.4
2020-Jan-24 23:10 045 5 gusting 11 24.4
2020-Jan-24 23:00 045 3 gusting 9 25.0
2020-Jan-24 22:50 045 4 gusting 9 25.0
2020-Jan-24 22:40 045 5 gusting 9 25.0
2020-Jan-24 22:30 023 3 gusting 7 25.0
2020-Jan-24 22:20 045 4 gusting 9 25.6
2020-Jan-24 22:10 023 5 gusting 11 25.6
2020-Jan-24 22:00 045 3 gusting 10 25.6
2020-Jan-24 21:50 023 3 gusting 8 26.1
2020-Jan-24 21:40 023 3 gusting 8 26.1
2020-Jan-24 21:30 045 3 gusting 8 26.1
2020-Jan-24 21:20 045 3 gusting 6 26.1
2020-Jan-24 21:10 045 3 gusting 8 26.1
2020-Jan-24 21:00 045 3 gusting 7 26.1
2020-Jan-24 20:50 045 4 gusting 7 26.1
2020-Jan-24 20:40 023 4 gusting 9 26.1
2020-Jan-24 20:30 023 3 gusting 8 26.1
2020-Jan-24 20:20 023 3 gusting 8 26.1
2020-Jan-24 20:10 023 2 gusting 6 26.7
2020-Jan-24 20:00 023 2 gusting 5 26.7
2020-Jan-24 19:50 315 2 gusting 5 26.7
2020-Jan-24 19:40 338 3 gusting 6 26.7
2020-Jan-24 19:30 023 2 gusting 6 26.7
2020-Jan-24 19:20 338 3 gusting 6 26.7
2020-Jan-24 19:10 26.7
2020-Jan-24 19:00 26.7
2020-Jan-24 18:50 338 2 gusting 7 26.7
2020-Jan-24 18:40 315 3 gusting 6 26.7
2020-Jan-24 18:30 315 3 gusting 6 26.7
2020-Jan-24 18:20 315 1 gusting 5 26.7
2020-Jan-24 18:10 338 3 gusting 7 26.7
2020-Jan-24 18:00 023 2 gusting 6 26.7
2020-Jan-24 17:50 338 4 gusting 6 26.1
2020-Jan-24 17:40 338 3 gusting 6 26.7
2020-Jan-24 17:30 315 2 gusting 7 26.7
2020-Jan-24 17:20 045 3 gusting 8 26.7
2020-Jan-24 17:10 315 3 gusting 7 26.1
2020-Jan-24 17:00 338 2 gusting 6 26.1
2020-Jan-24 16:50 315 3 gusting 6 26.1
2020-Jan-24 16:40 338 2 gusting 6 25.6
2020-Jan-24 16:30 315 1 gusting 4 25.6
2020-Jan-24 16:20 315 1 gusting 4 26.1
2020-Jan-24 16:10 045 0 gusting 2 25.6
2020-Jan-24 16:00 338 0 gusting 3 25.6
2020-Jan-24 15:50 315 1 gusting 3 25.6
2020-Jan-24 15:40 338 0 gusting 3 26.1
2020-Jan-24 15:30 090 0 gusting 2 25.6
2020-Jan-24 15:20 068 0 gusting 4 25.6
2020-Jan-24 15:10 068 0 gusting 3 25.6
2020-Jan-24 15:00 090 0 gusting 3 25.0
2020-Jan-24 14:50 090 1 gusting 4 25.6
2020-Jan-24 14:40 090 0 gusting 3 25.0
2020-Jan-24 14:30 090 1 gusting 3 25.0
2020-Jan-24 14:20 25.0
2020-Jan-24 14:10 24.4
2020-Jan-24 14:00 23.9
2020-Jan-24 13:50 22.8
2020-Jan-24 13:40 22.8
2020-Jan-24 13:30 22.2
2020-Jan-24 13:20 22.2
2020-Jan-24 13:10 21.7
2020-Jan-24 13:00 21.1
2020-Jan-24 12:50 21.1
2020-Jan-24 12:40 21.1
2020-Jan-24 12:30 21.7
2020-Jan-24 12:20 21.7
2020-Jan-24 12:10 21.7
2020-Jan-24 12:00 21.7
2020-Jan-24 11:50 21.7
2020-Jan-24 11:40 21.7
2020-Jan-24 11:30 21.7
2020-Jan-24 11:20 21.7
2020-Jan-24 11:10 21.7
2020-Jan-24 11:00 21.7
2020-Jan-24 10:50 21.7
2020-Jan-24 10:40 21.7
2020-Jan-24 10:30 21.7
2020-Jan-24 10:20 21.7
2020-Jan-24 10:10 21.7
2020-Jan-24 10:00 21.7
2020-Jan-24 09:50 21.7
2020-Jan-24 09:40 21.7
2020-Jan-24 09:30 21.7
2020-Jan-24 09:20 21.7
2020-Jan-24 09:10 21.7
2020-Jan-24 09:00 21.7
2020-Jan-24 08:50 21.7
2020-Jan-24 08:40 21.7
2020-Jan-24 08:30 21.7
2020-Jan-24 08:20 21.1
2020-Jan-24 08:10 21.1
2020-Jan-24 08:00 21.1
2020-Jan-24 07:50 21.1
2020-Jan-24 07:40 21.1
2020-Jan-24 07:30 21.1
2020-Jan-24 07:20 21.1
2020-Jan-24 07:10 21.1
2020-Jan-24 07:00 21.1
2020-Jan-24 06:50 21.1
2020-Jan-24 06:40 21.1
2020-Jan-24 06:30 21.1
2020-Jan-24 06:20 21.1
2020-Jan-24 06:10 21.1
2020-Jan-24 06:00 21.1
2020-Jan-24 05:50 21.1
2020-Jan-24 05:40 21.1
2020-Jan-24 05:30 21.1
2020-Jan-24 05:20 21.1
2020-Jan-24 05:10 21.1
2020-Jan-24 05:00 21.1
2020-Jan-24 04:50 21.1
2020-Jan-24 04:40 21.1
2020-Jan-24 04:30 21.1
2020-Jan-24 04:20 090 0 gusting 2 21.1
2020-Jan-24 04:10 21.1
2020-Jan-24 04:00 090 0 gusting 2 21.7
2020-Jan-24 03:50 21.7
2020-Jan-24 03:40 090 0 gusting 2 21.7
2020-Jan-24 03:30 090 1 gusting 3 21.7
2020-Jan-24 03:20 090 0 gusting 3 21.7
2020-Jan-24 03:10 090 1 gusting 3 21.7
2020-Jan-24 03:00 090 1 gusting 4 22.2
2020-Jan-24 02:50 090 1 gusting 4 22.2
2020-Jan-24 02:40 090 2 gusting 6 22.2
2020-Jan-24 02:30 090 1 gusting 4 22.2
2020-Jan-24 02:20 068 0 gusting 2 21.7
2020-Jan-24 02:10 068 1 gusting 4 21.7
2020-Jan-24 02:00 068 1 gusting 4 21.7
2020-Jan-24 01:50 068 1 gusting 6 21.7
2020-Jan-24 01:40 068 0 gusting 3 21.7
2020-Jan-24 01:30 090 0 gusting 2 21.7
2020-Jan-24 01:20 090 1 gusting 3 22.2
2020-Jan-24 01:10 090 1 gusting 5 22.2
2020-Jan-24 01:00 090 0 gusting 4 22.2
2020-Jan-24 00:50 090 1 gusting 4 22.2
2020-Jan-24 00:40 090 0 gusting 3 22.2
2020-Jan-24 00:30 068 0 gusting 3 22.2
2020-Jan-24 00:20 068 1 gusting 4 22.2
2020-Jan-24 00:10 068 1 gusting 4 22.8
2020-Jan-24 00:00 090 1 gusting 5 22.8
2020-Jan-23 23:50 090 1 gusting 5 22.8
2020-Jan-23 23:40 068 1 gusting 5 22.8
2020-Jan-23 23:30 068 2 gusting 5 22.8
2020-Jan-23 23:20 090 2 gusting 6 23.3
2020-Jan-23 23:10 090 1 gusting 6 23.3
2020-Jan-23 23:00 068 1 gusting 6 23.3
2020-Jan-23 22:50 090 2 gusting 6 23.3
2020-Jan-23 22:40 090 1 gusting 6 23.3
2020-Jan-23 22:30 090 2 gusting 7 23.9
2020-Jan-23 22:20 090 1 gusting 6 23.3
2020-Jan-23 22:10 090 3 gusting 6 23.9
2020-Jan-23 22:00 090 2 gusting 6 23.9
2020-Jan-23 21:50 090 1 gusting 5 23.9
2020-Jan-23 21:40 090 3 gusting 6 23.9
2020-Jan-23 21:30 090 2 gusting 6 23.9
2020-Jan-23 21:20 090 2 gusting 7 23.9
2020-Jan-23 21:10 090 2 gusting 6 23.9
2020-Jan-23 21:00 090 3 gusting 8 23.9
2020-Jan-23 20:50 090 2 gusting 7 23.9
2020-Jan-23 20:40 090 2 gusting 9 23.9
2020-Jan-23 20:30 090 2 gusting 6 23.9
2020-Jan-23 20:20 090 3 gusting 8 23.9
2020-Jan-23 20:10 090 3 gusting 8 23.9
2020-Jan-23 20:00 068 3 gusting 8 23.9
2020-Jan-23 19:50 090 3 gusting 7 23.9
2020-Jan-23 19:40 090 4 gusting 9 23.9
2020-Jan-23 19:30 090 3 gusting 9 23.3
2020-Jan-23 19:20 068 4 gusting 9 23.3
2020-Jan-23 19:10 068 4 gusting 9 23.3
2020-Jan-23 19:00 068 4 gusting 9 23.3
2020-Jan-23 18:50 045 5 gusting 10 23.3
2020-Jan-23 18:40 045 3 gusting 8 23.9
2020-Jan-23 18:30 045 2 gusting 7 23.9
2020-Jan-23 18:20 068 1 gusting 6 24.4
2020-Jan-23 18:10 090 0 gusting 5 24.4
2020-Jan-23 18:00 068 1 gusting 6 24.4
2020-Jan-23 17:50 068 2 gusting 6 24.4
2020-Jan-23 17:40 090 3 gusting 6 24.4
2020-Jan-23 17:30 090 1 gusting 5 24.4
2020-Jan-23 17:20 090 2 gusting 6 24.4
2020-Jan-23 17:10 090 3 gusting 6 24.4
2020-Jan-23 17:00 090 3 gusting 12 25.0
2020-Jan-23 16:50 090 2 gusting 7 25.0
2020-Jan-23 16:40 090 2 gusting 8 24.4
2020-Jan-23 16:30 090 2 gusting 6 24.4
2020-Jan-23 16:20 068 3 gusting 8 24.4
2020-Jan-23 16:10 068 4 gusting 12 24.4
2020-Jan-23 16:00 068 3 gusting 8 23.9
2020-Jan-23 15:50 090 3 gusting 7 23.9
2020-Jan-23 15:40 068 4 gusting 9 23.9
2020-Jan-23 15:30 090 4 gusting 9 23.9
2020-Jan-23 15:20 068 4 gusting 9 23.3
2020-Jan-23 15:10 090 5 gusting 10 23.3
2020-Jan-23 15:00 090 5 gusting 9 23.3
2020-Jan-23 14:50 090 4 gusting 8 23.3
2020-Jan-23 14:40 090 2 gusting 6 23.3
2020-Jan-23 14:30 090 1 gusting 6 22.8
2020-Jan-23 14:20 068 1 gusting 6 22.8
2020-Jan-23 14:10 068 1 gusting 6 22.2
2020-Jan-23 14:00 090 1 gusting 6 22.2
2020-Jan-23 13:50 090 1 gusting 5 22.2
2020-Jan-23 13:40 068 1 gusting 5 21.7
2020-Jan-23 13:30 068 1 gusting 4 21.7
2020-Jan-23 13:20 068 0 gusting 3 21.1
2020-Jan-23 13:10 068 1 gusting 5 21.1
2020-Jan-23 13:00 068 1 gusting 4 21.1
2020-Jan-23 12:50 068 1 gusting 4 21.1
2020-Jan-23 12:40 068 1 gusting 3 21.1
2020-Jan-23 12:30 068 0 gusting 3 21.1
2020-Jan-23 12:20 068 0 gusting 6 21.1
2020-Jan-23 12:10 068 1 gusting 4 21.1
2020-Jan-23 12:00 068 1 gusting 4 21.1
2020-Jan-23 11:50 068 0 gusting 3 21.1
2020-Jan-23 11:40 068 1 gusting 5 21.1
2020-Jan-23 11:30 068 1 gusting 3 21.1
2020-Jan-23 11:20 068 1 gusting 5 21.1
2020-Jan-23 11:10 068 0 gusting 3 21.1
2020-Jan-23 11:00 068 0 gusting 4 21.1
2020-Jan-23 10:50 068 0 gusting 4 21.1
2020-Jan-23 10:40 068 0 gusting 3 21.1
2020-Jan-23 10:30 068 0 gusting 2 21.1
2020-Jan-23 10:20 21.1
2020-Jan-23 10:10 21.1
2020-Jan-23 10:00 21.1